Location: Unspecified
(34.6070°N, 0.0000°E)
Time: 04:35:09
(UTC+00:00)

Tiros 1 - Visible Passes

Search period start: 04 April 2026 00:00
Search period end: 14 April 2026 00:00
Orbit: 618 x 650 km, 48.4° (Epoch: 28 March)

Date Brightness Start Highest point End Pass type
(mag) Time Alt. Az. Time Alt. Az. Time Alt. Az.
4 Apr 8.3 20:06:05 10° NW 20:10:15 30° NNE 20:11:01 28° NE visible
4 Apr 10.0 21:47:44 10° WNW 21:48:24 14° WNW 21:48:24 14° WNW visible
5 Apr 9.1 18:46:03 10° NNW 18:49:21 18° NNE 18:52:38 10° ENE visible
5 Apr 7.6 20:27:25 10° NW 20:31:42 51° NNE 20:31:42 51° NNE visible
6 Apr 8.6 19:07:24 10° NW 19:11:23 26° NNE 19:15:02 11° ENE visible
6 Apr 8.0 20:48:55 10° NW 20:52:25 49° WNW 20:52:25 49° WNW visible
7 Apr 7.8 19:28:43 10° NW 19:33:14 43° NNE 19:35:49 23° E visible
7 Apr 9.1 21:10:48 10° WNW 21:13:12 25° W 21:13:12 25° W visible
8 Apr 7.1 19:50:09 10° NW 19:54:53 86° NE 19:56:39 39° SE visible
8 Apr 10.0 21:33:41 10° W 21:34:02 11° W 21:34:02 11° W visible
9 Apr 7.9 20:11:52 10° WNW 20:16:20 43° SW 20:17:34 35° S visible
10 Apr 7.2 18:51:23 10° NW 18:56:06 69° NE 19:00:48 10° ESE visible
10 Apr 9.1 20:34:17 10° W 20:37:37 19° SW 20:38:33 18° SW visible
11 Apr 7.7 19:13:00 10° WNW 19:17:36 56° SW 19:22:13 10° SE visible
12 Apr 9.0 19:35:07 10° WNW 19:38:55 25° SW 19:42:44 10° S visible
13 Apr 10.0 19:59:59 10° SW 20:00:05 10° SW 20:00:12 10° SW visible
